Content
SEND FEEDBACK

Daily
Averages
Monthly
Summary
United States of America

VINTON, LOUISIANA


Home > North America > United States > Louisiana
Elevation: 20 feet     Latitude: 30 12N     Longitude: 093 35W

WEATHER
 
SELECT A DAY
Number of Records: 198,822;   Date Range: 11/22/06 - 12/18/14
 
SHARE

PRINT THIS DATA

[ ← Previous Day ]
WEATHER ALMANAC - JANUARY 16, 2013
[ Next Day → ]
[ °C ]   °F
Weather ElementAverageHighLow
Temperature38.3 °F46.4 °F (3:35 pm)33.8 °F (8:55 pm)
Dewpoint35.8 °F37.4 °F (10:35 am)32 °F (11:35 pm)
Humidity91.5 %100 % (12:35 am)71 % (3:35 pm)
Barometer30.19 in30.26 in (8:55 pm)30.10 in (12:35 am)
Wind Speed7.5 mph13.8 mph (5:15 am)
Wind Gust20.7 mph (9:35 am)
Weather ElementAverage
Visibility9.6 mi
Wind DirectionW (271 °)

Weather ElementTotal
Precipitation0.02 in
Heating Degree Days24.9 (Base 65)
Averaged from 69 records on January 16, 2013
WEATHER CONDITIONS BREAKOUT
WIND DIRECTION BREAKOUT
WEATHER BY HOUR - JANUARY 16, 2013
[ °C ]   °F
Local TimeTemperatureDewpointHumidityBarometerVisibilityWind DirectionWind SpeedGust SpeedPrecipitationEventsConditions
12:35 AM35.6 °F35.6 °F100 %30.10 in10.0 miNorth (350°)10.4 mphOvercast
12:55 AM35.6 °F35.6 °F100 %30.11 in10.0 miNNW (340°)11.5 mphOvercast
1:35 AM35.6 °F35.6 °F100 %30.11 in10.0 miNNW (330°)9.2 mphDrizzle
1:55 AM35.6 °F35.6 °F100 %30.12 in7.0 miNNW (330°)10.4 mphDrizzle
2:15 AM35.6 °F35.6 °F100 %30.13 in4.0 miNW (320°)11.5 mphLight Drizzle
2:35 AM35.6 °F35.6 °F100 %30.12 in5.0 miNNW (330°)8.1 mph0.01 inRainRain
2:55 AM35.6 °F35.6 °F100 %30.12 in7.0 miNNW (330°)9.2 mph0.01 inDrizzle
3:15 AM35.6 °F35.6 °F100 %30.11 in10.0 miNNW (340°)11.5 mphLight Drizzle
3:35 AM35.6 °F35.6 °F100 %30.11 in10.0 miNNW (340°)10.4 mphOvercast
3:55 AM35.6 °F35.6 °F100 %30.14 in10.0 miNW (320°)9.2 mphLight Drizzle
4:15 AM35.6 °F35.6 °F100 %30.14 in10.0 miNW (320°)12.7 mph18.4 mphRainRain
4:35 AM35.6 °F35.6 °F100 %30.14 in7.0 miNNW (330°)11.5 mph19.6 mphDrizzle
4:55 AM35.6 °F35.6 °F100 %30.13 in7.0 miNNW (330°)12.7 mph17.3 mphRainLight Rain
5:15 AM35.6 °F35.6 °F100 %30.12 in10.0 miNNW (340°)13.8 mphLight Drizzle
5:35 AM35.6 °F35.6 °F100 %30.15 in7.0 miNNW (330°)10.4 mph16.1 mphRainLight Rain
6:15 AM35.6 °F35.6 °F100 %30.15 in10.0 miNorth (350°)9.2 mphOvercast
6:35 AM35.6 °F35.6 °F100 %30.14 in10.0 miNNW (340°)11.5 mphOvercast
6:55 AM35.6 °F35.6 °F100 %30.15 in10.0 miNorth (350°)8.1 mphOvercast
7:15 AM35.6 °F35.6 °F100 %30.19 in10.0 miNW (320°)6.9 mphOvercast
7:35 AM35.6 °F35.6 °F100 %30.19 in10.0 miNNW (330°)4.6 mphOvercast
7:55 AM35.6 °F35.6 °F100 %30.19 in10.0 miNW (320°)8.1 mphOvercast
8:15 AM37.4 °F35.6 °F93 %30.20 in10.0 miNNW (330°)10.4 mphRainLight Rain
8:35 AM37.4 °F35.6 °F93 %30.21 in10.0 miNW (320°)8.1 mphRainLight Rain
8:55 AM37.4 °F35.6 °F93 %30.23 in10.0 miNW (320°)10.4 mphOvercast
9:15 AM37.4 °F35.6 °F93 %30.24 in10.0 miNW (320°)12.7 mphOvercast
9:35 AM37.4 °F35.6 °F93 %30.24 in10.0 miNW (320°)11.5 mph20.7 mphOvercast
9:55 AM37.4 °F35.6 °F93 %30.25 in10.0 miNNW (330°)8.1 mph17.3 mphOvercast
10:15 AM37.4 °F35.6 °F93 %30.24 in10.0 miNW (320°)10.4 mph16.1 mphOvercast
10:35 AM37.4 °F37.4 °F100 %30.23 in10.0 miNNW (330°)9.2 mph18.4 mphOvercast
10:55 AM37.4 °F37.4 °F100 %30.22 in10.0 miNW (320°)9.2 mphOvercast
11:15 AM39.2 °F37.4 °F93 %30.23 in10.0 miNW (310°)12.7 mphOvercast
11:35 AM39.2 °F37.4 °F93 %30.22 in10.0 miNW (310°)13.8 mphOvercast
11:55 AM41.0 °F37.4 °F87 %30.21 in10.0 miNW (310°)10.4 mphOvercast
12:15 PM41.0 °F37.4 °F87 %30.20 in10.0 miNW (310°)11.5 mph19.6 mphOvercast
12:35 PM42.8 °F37.4 °F81 %30.19 in10.0 miNW (320°)9.2 mphOvercast
12:55 PM42.8 °F37.4 °F81 %30.19 in10.0 miNW (320°)11.5 mphOvercast
1:15 PM42.8 °F37.4 °F81 %30.18 in10.0 miNNW (330°)12.7 mph18.4 mphOvercast
1:35 PM44.6 °F37.4 °F76 %30.17 in10.0 miNNW (330°)13.8 mphOvercast
1:55 PM44.6 °F37.4 °F76 %30.17 in10.0 miNNW (340°)11.5 mphOvercast
2:15 PM44.6 °F37.4 °F76 %30.16 in10.0 miNNW (340°)12.7 mph17.3 mphOvercast
2:35 PM44.6 °F37.4 °F76 %30.16 in10.0 miNNW (340°)9.2 mphOvercast
2:55 PM44.6 °F37.4 °F76 %30.16 in10.0 miNNW (340°)10.4 mphOvercast
3:15 PM44.6 °F37.4 °F76 %30.16 in10.0 miNorth (360°)8.1 mphOvercast
3:35 PM46.4 °F37.4 °F71 %30.15 in10.0 miNorth (360°)6.9 mphOvercast
3:55 PM46.4 °F37.4 °F71 %30.15 in10.0 miNNW (340°)4.6 mphScattered Clouds
4:15 PM46.4 °F37.4 °F71 %30.16 in10.0 miNorth (350°)5.8 mphClear
4:35 PM46.4 °F37.4 °F71 %30.16 in10.0 miNorth (360°)6.9 mphClear
4:55 PM44.6 °F37.4 °F76 %30.16 in10.0 miNorth (350°)6.9 mphClear
5:15 PM44.6 °F35.6 °F71 %30.18 in10.0 miNorth (350°)5.8 mphClear
5:35 PM42.8 °F35.6 °F76 %30.19 in10.0 miCalmClear
5:55 PM41.0 °F35.6 °F81 %30.20 in10.0 miNorth (360°)4.6 mphClear
6:15 PM41.0 °F35.6 °F81 %30.21 in10.0 miNorth (360°)3.5 mphClear
6:35 PM41.0 °F35.6 °F81 %30.22 in10.0 miNNE (20°)3.5 mphClear
6:55 PM41.0 °F35.6 °F81 %30.22 in10.0 miCalmClear
7:15 PM39.2 °F35.6 °F87 %30.23 in10.0 miCalmClear
7:35 PM37.4 °F35.6 °F93 %30.24 in10.0 miCalmClear
7:55 PM35.6 °F35.6 °F100 %30.24 in10.0 miCalmClear
8:15 PM35.6 °F35.6 °F100 %30.24 in10.0 miCalmClear
8:35 PM35.6 °F35.6 °F100 %30.25 in10.0 miCalmClear
8:55 PM33.8 °F33.8 °F100 %30.26 in10.0 miWest (260°)4.6 mphClear
9:15 PM33.8 °F33.8 °F100 %30.25 in10.0 miWNW (290°)3.5 mphClear
9:35 PM33.8 °F33.8 °F100 %30.26 in10.0 miWest (260°)3.5 mphClear
9:55 PM33.8 °F33.8 °F100 %30.26 in10.0 miWest (270°)3.5 mphClear
10:15 PM33.8 °F33.8 °F100 %30.26 in10.0 miCalmClear
10:35 PM33.8 °F33.8 °F100 %30.25 in7.0 miCalmClear
10:55 PM33.8 °F33.8 °F100 %30.25 in10.0 miNW (310°)3.5 mphClear
11:15 PM33.8 °F33.8 °F100 %30.25 in10.0 miWNW (300°)3.5 mphClear
11:35 PM33.8 °F32.0 °F93 %30.24 in10.0 miCalmClear
11:55 PM33.8 °F33.8 °F100 %30.25 in10.0 miCalmClear
Hourly data recorded from KUXL, located miles away from Vinton, Louisiana







STORIES FROM OUR PARTNERS